Total_Precipitation_Accumulation
0.00 0.00 0.01 0.01 0.02 0.03 0.03 0.05 0.13 0.22 0.14 0.14 0.26 0.48 0.60 0.67 0.73 0.89 1.05 1.04 1.09 1.19 1.54 1.97 2.45 2.97 3.65 4.55 5.46 5.81 5.52 4.93 4.47 4.01 3.49 3.08 2.72 2.48 2.35 2.05 1.71 1.56 1.53 1.52
0.01 0.02 0.02 0.02 0.02 0.04 0.05 0.08 0.13 0.18 0.12 0.14 0.24 0.48 0.70 0.82 0.92 0.89 0.95 1.04 1.01 1.20 1.61 2.09 2.65 3.07 3.42 3.95 4.70 4.98 4.61 3.95 3.36 3.04 2.86 2.63 2.49 2.18 1.97 1.83 1.69 1.44 1.41 1.41
0.01 0.03 0.02 0.02 0.02 0.06 0.08 0.08 0.12 0.15 0.08 0.14 0.23 0.56 0.89 1.02 0.85 0.69 0.63 0.75 0.77 0.93 1.45 2.16 2.66 2.92 3.21 3.42 3.43 3.53 3.40 2.88 2.52 2.40 2.37 2.31 2.32 2.10 1.84 1.69 1.50 1.29 1.23 1.19
0.01 0.02 0.01 0.02 0.04 0.04 0.07 0.06 0.05 0.05 0.07 0.22 0.32 0.83 1.11 1.03 0.88 0.70 0.57 0.59 0.60 0.81 1.29 2.03 2.28 2.34 2.44 2.55 2.37 2.37 2.43 2.24 2.17 2.07 2.05 1.90 1.72 1.64 1.51 1.49 1.40 1.28 1.21 1.15
0.03 0.02 0.02 0.02 0.03 0.04 0.05 0.04 0.04 0.07 0.11 0.26 0.45 0.78 1.12 1.01 1.00 0.73 0.55 0.52 0.62 0.70 0.99 1.32 1.37 1.47 1.56 1.66 1.71 1.88 2.09 2.09 1.99 1.93 2.00 1.97 1.69 1.51 1.41 1.41 1.44 1.31 1.19 1.12
0.04 0.04 0.03 0.03 0.03 0.03 0.04 0.05 0.11 0.23 0.34 0.66 0.68 0.75 1.15 1.03 0.84 0.57 0.47 0.51 0.46 0.49 0.68 0.88 0.93 0.95 1.01 1.07 1.22 1.42 1.78 1.91 1.83 1.77 1.79 1.74 1.65 1.57 1.43 1.30 1.29 1.27 1.18 1.15
0.10 0.08 0.08 0.06 0.05 0.06 0.05 0.09 0.26 0.60 1.00 1.12 0.70 0.74 1.06 0.72 0.49 0.36 0.31 0.34 0.38 0.52 0.60 0.71 0.83 0.85 0.78 0.76 0.88 1.07 1.30 1.42 1.46 1.52 1.59 1.63 1.66 1.60 1.42 1.31 1.23 1.22 1.11 1.09
0.14 0.15 0.11 0.07 0.05 0.06 0.07 0.09 0.18 0.36 0.47 0.59 0.60 0.99 1.14 0.61 0.39 0.28 0.23 0.24 0.38 0.47 0.45 0.48 0.55 0.54 0.53 0.60 0.70 0.85 0.97 1.05 1.14 1.23 1.34 1.45 1.45 1.43 1.35 1.37 1.29 1.21 1.10 1.06
0.06 0.06 0.04 0.04 0.06 0.06 0.06 0.06 0.07 0.08 0.14 0.36 0.67 0.92 0.85 0.53 0.35 0.26 0.22 0.21 0.32 0.35 0.31 0.29 0.29 0.30 0.35 0.50 0.62 0.70 0.78 0.85 0.94 1.02 1.18 1.28 1.30 1.29 1.32 1.32 1.21 1.15 1.16 1.09
0.03 0.03 0.03 0.04 0.05 0.07 0.07 0.06 0.06 0.05 0.15 0.34 0.62 0.92 0.94 0.65 0.44 0.32 0.23 0.21 0.29 0.28 0.24 0.23 0.22 0.20 0.21 0.26 0.40 0.54 0.63 0.76 0.89 0.96 0.97 1.01 1.15 1.14 1.16 1.14 1.07 1.12 1.14 1.10
0.02 0.02 0.02 0.03 0.05 0.07 0.06 0.06 0.06 0.06 0.08 0.19 0.46 0.69 0.59 0.46 0.31 0.25 0.23 0.23 0.28 0.28 0.27 0.21 0.20 0.19 0.18 0.20 0.28 0.39 0.49 0.60 0.70 0.74 0.77 0.89 0.99 0.99 0.98 0.98 0.95 0.99 1.01 1.03
0.03 0.02 0.02 0.06 0.07 0.07 0.06 0.06 0.07 0.09 0.09 0.13 0.24 0.35 0.29 0.31 0.24 0.23 0.24 0.29 0.37 0.39 0.37 0.28 0.24 0.20 0.25 0.25 0.24 0.31 0.34 0.37 0.42 0.51 0.58 0.71 0.86 0.87 0.86 0.88 1.00 1.05 1.02 0.95
0.03 0.02 0.04 0.14 0.20 0.15 0.08 0.06 0.09 0.10 0.10 0.12 0.27 0.41 0.27 0.26 0.31 0.31 0.27 0.33 0.39 0.34 0.36 0.43 0.39 0.26 0.28 0.25 0.23 0.25 0.26 0.30 0.34 0.40 0.47 0.58 0.73 0.84 0.89 0.94 1.00 1.06 1.06 1.00
0.05 0.04 0.05 0.16 0.22 0.22 0.17 0.13 0.12 0.12 0.12 0.11 0.19 0.35 0.29 0.27 0.37 0.36 0.27 0.33 0.39 0.34 0.34 0.47 0.51 0.29 0.24 0.24 0.24 0.25 0.27 0.31 0.33 0.39 0.48 0.58 0.66 0.80 0.93 0.99 1.04 1.07 1.11 1.10
0.06 0.06 0.05 0.05 0.10 0.16 0.19 0.15 0.13 0.10 0.10 0.12 0.15 0.24 0.32 0.41 0.42 0.36 0.35 0.39 0.38 0.40 0.36 0.33 0.36 0.28 0.26 0.26 0.27 0.28 0.31 0.35 0.37 0.43 0.51 0.58 0.67 0.73 0.83 0.98 1.07 1.18 1.23 1.17
0.09 0.08 0.07 0.06 0.10 0.12 0.13 0.16 0.12 0.08 0.07 0.08 0.11 0.22 0.35 0.38 0.43 0.42 0.36 0.34 0.38 0.44 0.43 0.46 0.46 0.40 0.38 0.38 0.36 0.31 0.37 0.45 0.52 0.60 0.64 0.68 0.75 0.85 0.89 0.96 1.01 1.15 1.23 1.28
0.16 0.16 0.16 0.15 0.15 0.15 0.16 0.15 0.11 0.09 0.10 0.11 0.13 0.20 0.32 0.41 0.47 0.50 0.50 0.44 0.45 0.56 0.58 0.66 0.70 0.62 0.54 0.48 0.44 0.45 0.52 0.58 0.65 0.74 0.86 0.92 0.97 1.07 1.09 1.12 1.12 1.16 1.30 1.40
0.25 0.26 0.23 0.21 0.24 0.28 0.18 0.14 0.13 0.12 0.13 0.16 0.23 0.28 0.36 0.49 0.53 0.58 0.68 0.65 0.58 0.55 0.59 0.69 0.76 0.75 0.69 0.65 0.63 0.70 0.74 0.80 0.92 1.02 1.14 1.25 1.31 1.38 1.45 1.51 1.48 1.49 1.53 1.62
0.27 0.36 0.34 0.32 0.38 0.32 0.24 0.21 0.20 0.22 0.29 0.30 0.37 0.53 0.62 0.61 0.72 0.83 0.76 0.66 0.64 0.64 0.66 0.82 0.82 0.78 0.79 0.90 0.92 0.91 0.93 0.99 1.16 1.34 1.45 1.56 1.62 1.65 1.67 1.67 1.72 1.78 1.87 1.88
0.32 0.34 0.43 0.39 0.44 0.45 0.41 0.37 0.35 0.43 0.75 0.63 0.65 0.67 0.64 0.64 0.87 0.91 0.68 0.60 0.61 0.64 0.75 0.87 0.92 0.91 0.98 1.20 1.23 1.23 1.26 1.32 1.37 1.41 1.52 1.69 1.82 1.89 1.85 1.86 1.97 2.10 2.22 2.19
0.55 0.56 0.51 0.47 0.49 0.45 0.45 0.43 0.49 0.85 1.19 0.98 0.88 0.83 0.81 0.89 0.90 0.89 0.76 0.64 0.62 0.64 0.72 0.82 0.86 0.92 0.98 1.14 1.26 1.48 1.60 1.62 1.63 1.66 1.69 1.76 1.86 1.97 1.97 2.02 2.07 2.17 2.28 2.28
0.76 0.78 0.75 0.70 0.79 0.80 0.53 0.56 0.85 1.09 0.95 0.98 1.07 1.11 1.08 1.03 0.88 0.77 0.69 0.67 0.62 0.59 0.62 0.71 0.87 0.97 1.06 1.21 1.42 1.60 1.73 1.85 1.93 1.92 1.98 1.96 1.99 1.95 1.89 2.03 2.13 2.21 2.32 2.25
0.89 0.89 0.91 0.94 1.03 0.92 0.70 0.77 0.79 0.78 0.92 0.99 1.03 1.13 1.17 1.10 1.10 0.94 0.85 0.82 0.75 0.69 0.67 0.71 0.82 0.96 1.04 1.13 1.33 1.64 1.69 1.71 1.76 1.82 1.86 1.92 1.92 1.94 1.95 2.03 2.11 2.23 2.25 2.20
0.93 0.87 0.96 1.09 1.11 0.99 0.91 0.92 0.91 0.89 0.95 0.96 1.00 1.03 1.06 1.05 1.13 1.09 0.94 0.80 0.73 0.70 0.71 0.76 0.83 0.93 1.00 0.95 1.04 1.21 1.34 1.42 1.45 1.49 1.52 1.54 1.63 1.71 1.86 2.04 2.07 2.14 2.21 2.23
0.94 0.89 1.01 1.30 1.40 1.37 1.26 1.17 1.13 1.04 1.11 1.16 1.09 1.07 1.11 0.99 1.01 1.02 0.87 0.73 0.64 0.61 0.59 0.66 0.81 0.81 0.83 0.89 0.89 0.93 0.99 1.15 1.26 1.30 1.33 1.40 1.51 1.62 1.78 1.97 2.08 2.00 2.01 2.14
1.16 1.05 1.07 1.33 1.36 1.50 1.51 1.31 1.19 1.09 1.13 1.17 1.12 1.04 0.99 0.91 0.90 0.81 0.69 0.60 0.58 0.56 0.57 0.62 0.69 0.68 0.67 0.74 0.75 0.77 0.89 1.08 1.20 1.21 1.22 1.25 1.28 1.38 1.49 1.63 1.71 1.65 1.46 1.50